owner,sensor,date,latitude,longitude,vertical_datum,wind_speed,wind_to_direction,wind_speed_of_gust,qcFlag 
DISL,ioos:station:DISL:MHPA:1,2017-03-01T00:00:00Z,30.6671,-87.9365,8.5,5.2,161.8,-999.0,'1111122,1111122,1111122' 
DISL,ioos:station:DISL:MHPA:1,2017-03-01T00:30:00Z,30.6671,-87.9365,8.5,5.13,162.1,-999.0,'1111122,1111122,1111122' 
DISL,ioos:station:DISL:MHPA:1,2017-03-01T01:00:00Z,30.6671,-87.9365,8.5,5.05,151.2,-999.0,'1111122,1111122,1111122' 
DISL,ioos:station:DISL:MHPA:1,2017-03-01T01:30:00Z,30.6671,-87.9365,8.5,4.25,149.8,-999.0,'1111122,1111122,1111122' 
DISL,ioos:station:DISL:MHPA:1,2017-03-01T02:00:00Z,30.6671,-87.9365,8.5,4.28,146.2,-999.0,'1111122,1111122,1111122' 
DISL,ioos:station:DISL:MHPA:1,2017-03-01T02:30:00Z,30.6671,-87.9365,8.5,4.95,155.0,-999.0,'1111122,1111122,1111122' 
DISL,ioos:station:DISL:MHPA:1,2017-03-01T03:00:00Z,30.6671,-87.9365,8.5,4.64,156.8,-999.0,'1111122,1111122,1111122' 
DISL,ioos:station:DISL:MHPA:1,2017-03-01T03:30:00Z,30.6671,-87.9365,8.5,5.01,155.2,-999.0,'1111122,1111122,1111122' 
DISL,ioos:station:DISL:MHPA:1,2017-03-01T04:00:00Z,30.6671,-87.9365,8.5,3.83,155.1,-999.0,'1111122,1111122,1111122' 
DISL,ioos:station:DISL:MHPA:1,2017-03-01T04:30:00Z,30.6671,-87.9365,8.5,4.98,165.5,-999.0,'1111122,1111122,1111122' 
DISL,ioos:station:DISL:MHPA:1,2017-03-01T05:00:00Z,30.6671,-87.9365,8.5,4.76,166.9,-999.0,'1111122,1111122,1111122' 
DISL,ioos:station:DISL:MHPA:1,2017-03-01T05:30:00Z,30.6671,-87.9365,8.5,4.55,164.7,-999.0,'1111122,1111122,1111122' 
DISL,ioos:station:DISL:MHPA:1,2017-03-01T06:00:00Z,30.6671,-87.9365,8.5,4.23,153.7,-999.0,'1111122,1111122,1111122' 
DISL,ioos:station:DISL:MHPA:1,2017-03-01T06:30:00Z,30.6671,-87.9365,8.5,3.81,152.7,-999.0,'1111122,1111122,1111122' 
DISL,ioos:station:DISL:MHPA:1,2017-03-01T07:00:00Z,30.6671,-87.9365,8.5,5.78,155.9,-999.0,'1111122,1111122,1111122' 
DISL,ioos:station:DISL:MHPA:1,2017-03-01T07:30:00Z,30.6671,-87.9365,8.5,5.86,159.6,-999.0,'1111122,1111122,1111122' 
DISL,ioos:station:DISL:MHPA:1,2017-03-01T08:00:00Z,30.6671,-87.9365,8.5,5.66,165.4,-999.0,'1111122,1111122,1111122' 
DISL,ioos:station:DISL:MHPA:1,2017-03-01T08:30:00Z,30.6671,-87.9365,8.5,5.79,163.7,-999.0,'1111122,1111122,1111122' 
DISL,ioos:station:DISL:MHPA:1,2017-03-01T09:00:00Z,30.6671,-87.9365,8.5,6.67,161.4,-999.0,'1111122,1111122,1111122' 
DISL,ioos:station:DISL:MHPA:1,2017-03-01T09:30:00Z,30.6671,-87.9365,8.5,6.4,164.8,-999.0,'1111122,1111122,1111122' 
DISL,ioos:station:DISL:MHPA:1,2017-03-01T10:00:00Z,30.6671,-87.9365,8.5,5.43,175.5,-999.0,'1111122,1111122,1111122' 
DISL,ioos:station:DISL:MHPA:1,2017-03-01T10:30:00Z,30.6671,-87.9365,8.5,4.33,181.0,-999.0,'1111122,1111122,1111122' 
DISL,ioos:station:DISL:MHPA:1,2017-03-01T11:00:00Z,30.6671,-87.9365,8.5,4.55,175.6,-999.0,'1111122,1111122,1111122' 
DISL,ioos:station:DISL:MHPA:1,2017-03-01T11:30:00Z,30.6671,-87.9365,8.5,3.4,191.1,-999.0,'1111122,1111122,1111122' 
DISL,ioos:station:DISL:MHPA:1,2017-03-01T12:00:00Z,30.6671,-87.9365,8.5,2.83,171.6,-999.0,'1111122,1111122,1111122' 
DISL,ioos:station:DISL:MHPA:1,2017-03-01T12:30:00Z,30.6671,-87.9365,8.5,3.69,178.7,-999.0,'1111122,1111122,1111122' 
DISL,ioos:station:DISL:MHPA:1,2017-03-01T13:00:00Z,30.6671,-87.9365,8.5,2.76,159.7,-999.0,'1111122,1111122,1111122' 
DISL,ioos:station:DISL:MHPA:1,2017-03-01T13:30:00Z,30.6671,-87.9365,8.5,3.44,153.7,-999.0,'1111122,1111122,1111122' 
DISL,ioos:station:DISL:MHPA:1,2017-03-01T14:00:00Z,30.6671,-87.9365,8.5,3.32,155.5,-999.0,'1111122,1111122,1111122' 
DISL,ioos:station:DISL:MHPA:1,2017-03-01T14:30:00Z,30.6671,-87.9365,8.5,4.7,148.9,-999.0,'1111122,1111122,1111122' 
DISL,ioos:station:DISL:MHPA:1,2017-03-01T15:00:00Z,30.6671,-87.9365,8.5,5.5,156.5,-999.0,'1111122,1111122,1111122' 
DISL,ioos:station:DISL:MHPA:1,2017-03-01T15:30:00Z,30.6671,-87.9365,8.5,4.43,168.1,-999.0,'1111122,1111122,1111122' 
DISL,ioos:station:DISL:MHPA:1,2017-03-01T16:00:00Z,30.6671,-87.9365,8.5,4.73,160.5,-999.0,'1111122,1111122,1111122' 
DISL,ioos:station:DISL:MHPA:1,2017-03-01T16:30:00Z,30.6671,-87.9365,8.5,4.94,157.9,-999.0,'1111122,1111122,1111122' 
DISL,ioos:station:DISL:MHPA:1,2017-03-01T17:00:00Z,30.6671,-87.9365,8.5,5.31,160.9,-999.0,'1111122,1111122,1111122' 
DISL,ioos:station:DISL:MHPA:1,2017-03-01T17:30:00Z,30.6671,-87.9365,8.5,5.58,162.8,-999.0,'1111122,1111122,1111122' 
DISL,ioos:station:DISL:MHPA:1,2017-03-01T21:30:00Z,30.6671,-87.9365,8.5,6.83,166.6,-999.0,'1111122,1111122,1111122' 
DISL,ioos:station:DISL:MHPA:1,2017-03-01T22:00:00Z,30.6671,-87.9365,8.5,7.31,165.0,-999.0,'1111122,1111122,1111122' 
DISL,ioos:station:DISL:MHPA:1,2017-03-01T22:30:00Z,30.6671,-87.9365,8.5,7.15,165.9,-999.0,'1111122,1111122,1111122' 
DISL,ioos:station:DISL:MHPA:1,2017-03-01T23:00:00Z,30.6671,-87.9365,8.5,5.86,171.2,-999.0,'1111122,1111122,1111122' 
DISL,ioos:station:DISL:MHPA:1,2017-03-01T23:30:00Z,30.6671,-87.9365,8.5,5.41,168.6,-999.0,'1111122,1111122,1111122' 
DISL,ioos:station:DISL:MHPA:1,2017-03-02T00:00:00Z,30.6671,-87.9365,8.5,5.12,166.5,-999.0,'1111122,1111122,1111122' 
DISL,ioos:station:DISL:MHPA:1,2017-03-02T00:30:00Z,30.6671,-87.9365,8.5,5.22,164.8,-999.0,'1111122,1111122,1111122' 
DISL,ioos:station:DISL:MHPA:1,2017-03-02T01:00:00Z,30.6671,-87.9365,8.5,4.7,166.3,-999.0,'1111122,1111122,1111122' 
DISL,ioos:station:DISL:MHPA:1,2017-03-02T01:30:00Z,30.6671,-87.9365,8.5,5.26,165.4,-999.0,'1111122,1111122,1111122' 
DISL,ioos:station:DISL:MHPA:1,2017-03-02T02:00:00Z,30.6671,-87.9365,8.5,2.95,176.1,-999.0,'1111122,1111122,1111122' 
DISL,ioos:station:DISL:MHPA:1,2017-03-02T02:30:00Z,30.6671,-87.9365,8.5,3.41,203.2,-999.0,'1111122,1111122,1111122' 
DISL,ioos:station:DISL:MHPA:1,2017-03-02T03:00:00Z,30.6671,-87.9365,8.5,3.12,215.8,-999.0,'1111122,1111122,1111122' 
DISL,ioos:station:DISL:MHPA:1,2017-03-02T03:30:00Z,30.6671,-87.9365,8.5,5.45,348.8,-999.0,'1111122,1111122,1111122' 
DISL,ioos:station:DISL:MHPA:1,2017-03-02T04:00:00Z,30.6671,-87.9365,8.5,3.31,338.0,-999.0,'1111122,1111122,1111122' 
DISL,ioos:station:DISL:MHPA:1,2017-03-02T04:30:00Z,30.6671,-87.9365,8.5,4.56,344.5,-999.0,'1111122,1111122,1111122' 
DISL,ioos:station:DISL:MHPA:1,2017-03-02T05:00:00Z,30.6671,-87.9365,8.5,2.85,334.1,-999.0,'1111122,1111122,1111122' 
DISL,ioos:station:DISL:MHPA:1,2017-03-02T05:30:00Z,30.6671,-87.9365,8.5,3.62,334.4,-999.0,'1111122,1111122,1111122' 
DISL,ioos:station:DISL:MHPA:1,2017-03-02T06:00:00Z,30.6671,-87.9365,8.5,2.87,333.0,-999.0,'1111122,1111122,1111122' 
DISL,ioos:station:DISL:MHPA:1,2017-03-02T06:30:00Z,30.6671,-87.9365,8.5,4.8,356.5,-999.0,'1111122,1111122,1111122' 
DISL,ioos:station:DISL:MHPA:1,2017-03-02T07:00:00Z,30.6671,-87.9365,8.5,4.66,350.4,-999.0,'1111122,1111122,1111122' 
DISL,ioos:station:DISL:MHPA:1,2017-03-02T07:30:00Z,30.6671,-87.9365,8.5,4.74,345.7,-999.0,'1111122,1111122,1111122' 
DISL,ioos:station:DISL:MHPA:1,2017-03-02T08:00:00Z,30.6671,-87.9365,8.5,4.9,337.2,-999.0,'1111122,1111122,1111122' 
DISL,ioos:station:DISL:MHPA:1,2017-03-02T08:30:00Z,30.6671,-87.9365,8.5,5.37,5.871,-999.0,'1111122,1111122,1111122' 
DISL,ioos:station:DISL:MHPA:1,2017-03-02T09:00:00Z,30.6671,-87.9365,8.5,5.59,359.1,-999.0,'1111122,1111122,1111122' 
DISL,ioos:station:DISL:MHPA:1,2017-03-02T09:30:00Z,30.6671,-87.9365,8.5,5.67,356.0,-999.0,'1111122,1111122,1111122' 
DISL,ioos:station:DISL:MHPA:1,2017-03-02T10:00:00Z,30.6671,-87.9365,8.5,6.13,351.4,-999.0,'1111122,1111122,1111122' 
DISL,ioos:station:DISL:MHPA:1,2017-03-02T10:30:00Z,30.6671,-87.9365,8.5,6.03,351.1,-999.0,'1111122,1111122,1111122' 
DISL,ioos:station:DISL:MHPA:1,2017-03-02T11:00:00Z,30.6671,-87.9365,8.5,5.83,358.9,-999.0,'1111122,1111122,1111122' 
DISL,ioos:station:DISL:MHPA:1,2017-03-02T11:30:00Z,30.6671,-87.9365,8.5,6.56,3.889,-999.0,'1111122,1111122,1111122' 
DISL,ioos:station:DISL:MHPA:1,2017-03-02T12:00:00Z,30.6671,-87.9365,8.5,5.99,343.7,-999.0,'1111122,1111122,1111122' 
DISL,ioos:station:DISL:MHPA:1,2017-03-02T12:30:00Z,30.6671,-87.9365,8.5,5.26,4.179,-999.0,'1111122,1111122,1111122' 
DISL,ioos:station:DISL:MHPA:1,2017-03-02T13:00:00Z,30.6671,-87.9365,8.5,5.25,0.789,-999.0,'1111122,1111122,1111122' 
DISL,ioos:station:DISL:MHPA:1,2017-03-02T13:30:00Z,30.6671,-87.9365,8.5,5.54,13.91,-999.0,'1111122,1111122,1111122' 
DISL,ioos:station:DISL:MHPA:1,2017-03-02T14:00:00Z,30.6671,-87.9365,8.5,5.36,1.319,-999.0,'1111122,1111122,1111122' 
DISL,ioos:station:DISL:MHPA:1,2017-03-02T14:30:00Z,30.6671,-87.9365,8.5,5.61,352.8,-999.0,'1111122,1111122,1111122' 
DISL,ioos:station:DISL:MHPA:1,2017-03-02T15:00:00Z,30.6671,-87.9365,8.5,6.8,15.03,-999.0,'1111122,1111122,1111122' 
DISL,ioos:station:DISL:MHPA:1,2017-03-02T15:30:00Z,30.6671,-87.9365,8.5,6.77,356.7,-999.0,'1111122,1111122,1111122' 
DISL,ioos:station:DISL:MHPA:1,2017-03-02T16:00:00Z,30.6671,-87.9365,8.5,4.61,3.634,-999.0,'1111122,1111122,1111122' 
DISL,ioos:station:DISL:MHPA:1,2017-03-02T16:30:00Z,30.6671,-87.9365,8.5,6.8,346.8,-999.0,'1111122,1111122,1111122' 
DISL,ioos:station:DISL:MHPA:1,2017-03-02T17:00:00Z,30.6671,-87.9365,8.5,5.11,3.451,-999.0,'1111122,1111122,1111122' 
DISL,ioos:station:DISL:MHPA:1,2017-03-02T17:30:00Z,30.6671,-87.9365,8.5,6.51,350.6,-999.0,'1111122,1111122,1111122' 
DISL,ioos:station:DISL:MHPA:1,2017-03-02T18:00:00Z,30.6671,-87.9365,8.5,6.29,345.4,-999.0,'1111122,1111122,1111122' 
DISL,ioos:station:DISL:MHPA:1,2017-03-02T18:30:00Z,30.6671,-87.9365,8.5,6.03,355.1,-999.0,'1111122,1111122,1111122' 
DISL,ioos:station:DISL:MHPA:1,2017-03-02T19:00:00Z,30.6671,-87.9365,8.5,5.27,337.5,-999.0,'1111122,1111122,1111122' 
DISL,ioos:station:DISL:MHPA:1,2017-03-02T19:30:00Z,30.6671,-87.9365,8.5,5.84,357.4,-999.0,'1111122,1111122,1111122' 
DISL,ioos:station:DISL:MHPA:1,2017-03-02T20:00:00Z,30.6671,-87.9365,8.5,5.03,349.1,-999.0,'1111122,1111122,1111122' 
DISL,ioos:station:DISL:MHPA:1,2017-03-02T20:30:00Z,30.6671,-87.9365,8.5,5.04,353.6,-999.0,'1111122,1111122,1111122' 
DISL,ioos:station:DISL:MHPA:1,2017-03-02T21:00:00Z,30.6671,-87.9365,8.5,5.24,333.6,-999.0,'1111122,1111122,1111122' 
DISL,ioos:station:DISL:MHPA:1,2017-03-02T21:30:00Z,30.6671,-87.9365,8.5,4.47,350.5,-999.0,'1111122,1111122,1111122' 
DISL,ioos:station:DISL:MHPA:1,2017-03-02T22:00:00Z,30.6671,-87.9365,8.5,4.32,352.9,-999.0,'1111122,1111122,1111122' 
DISL,ioos:station:DISL:MHPA:1,2017-03-02T22:30:00Z,30.6671,-87.9365,8.5,4.55,357.1,-999.0,'1111122,1111122,1111122' 
DISL,ioos:station:DISL:MHPA:1,2017-03-02T23:00:00Z,30.6671,-87.9365,8.5,4.57,4.439,-999.0,'1111122,1111122,1111122' 
DISL,ioos:station:DISL:MHPA:1,2017-03-02T23:30:00Z,30.6671,-87.9365,8.5,4.16,13.28,-999.0,'1111122,1111122,1111122' 
DISL,ioos:station:DISL:MHPA:1,2017-03-03T00:00:00Z,30.6671,-87.9365,8.5,2.7,9.14,-999.0,'1111122,1111122,1111122' 
DISL,ioos:station:DISL:MHPA:1,2017-03-03T00:30:00Z,30.6671,-87.9365,8.5,1.42,25.61,-999.0,'1111122,1111122,1111122' 
DISL,ioos:station:DISL:MHPA:1,2017-03-03T01:00:00Z,30.6671,-87.9365,8.5,1.1,15.41,-999.0,'1111122,1111122,1111122' 
DISL,ioos:station:DISL:MHPA:1,2017-03-03T01:30:00Z,30.6671,-87.9365,8.5,1.27,13.66,-999.0,'1111122,1111122,1111122' 
DISL,ioos:station:DISL:MHPA:1,2017-03-03T02:00:00Z,30.6671,-87.9365,8.5,2.5,2.635,-999.0,'1111122,1111122,1111122' 
DISL,ioos:station:DISL:MHPA:1,2017-03-03T02:30:00Z,30.6671,-87.9365,8.5,2.73,1.103,-999.0,'1111122,1111122,1111122' 
DISL,ioos:station:DISL:MHPA:1,2017-03-03T03:00:00Z,30.6671,-87.9365,8.5,2.11,3.536,-999.0,'1111122,1111122,1111122' 
DISL,ioos:station:DISL:MHPA:1,2017-03-03T03:30:00Z,30.6671,-87.9365,8.5,1.97,12.57,-999.0,'1111122,1111122,1111122' 
DISL,ioos:station:DISL:MHPA:1,2017-03-03T04:00:00Z,30.6671,-87.9365,8.5,1.92,353.5,-999.0,'1111122,1111122,1111122' 
DISL,ioos:station:DISL:MHPA:1,2017-03-03T04:30:00Z,30.6671,-87.9365,8.5,2.59,350.0,-999.0,'1111122,1111122,1111122' 
DISL,ioos:station:DISL:MHPA:1,2017-03-03T05:00:00Z,30.6671,-87.9365,8.5,1.56,3.651,-999.0,'1111122,1111122,1111122' 
DISL,ioos:station:DISL:MHPA:1,2017-03-03T05:30:00Z,30.6671,-87.9365,8.5,1.44,8.44,-999.0,'1111122,1111122,1111122' 
DISL,ioos:station:DISL:MHPA:1,2017-03-03T06:00:00Z,30.6671,-87.9365,8.5,1.14,2.563,-999.0,'1111122,1111122,1111122' 
DISL,ioos:station:DISL:MHPA:1,2017-03-03T06:30:00Z,30.6671,-87.9365,8.5,1.1,5.948,-999.0,'1111122,1111122,1111122' 
DISL,ioos:station:DISL:MHPA:1,2017-03-03T07:00:00Z,30.6671,-87.9365,8.5,1.97,0.681,-999.0,'1111122,1111122,1111122' 
DISL,ioos:station:DISL:MHPA:1,2017-03-03T07:30:00Z,30.6671,-87.9365,8.5,2.26,1.293,-999.0,'1111122,1111122,1111122' 
DISL,ioos:station:DISL:MHPA:1,2017-03-03T08:00:00Z,30.6671,-87.9365,8.5,1.86,5.771,-999.0,'1111122,1111122,1111122' 
DISL,ioos:station:DISL:MHPA:1,2017-03-03T08:30:00Z,30.6671,-87.9365,8.5,2.25,17.1,-999.0,'1111122,1111122,1111122' 
DISL,ioos:station:DISL:MHPA:1,2017-03-03T09:00:00Z,30.6671,-87.9365,8.5,2.41,5.005,-999.0,'1111122,1111122,1111122' 
DISL,ioos:station:DISL:MHPA:1,2017-03-03T09:30:00Z,30.6671,-87.9365,8.5,2.96,359.2,-999.0,'1111122,1111122,1111122' 
DISL,ioos:station:DISL:MHPA:1,2017-03-03T10:00:00Z,30.6671,-87.9365,8.5,3.08,0.327,-999.0,'1111122,1111122,1111122' 
DISL,ioos:station:DISL:MHPA:1,2017-03-03T10:30:00Z,30.6671,-87.9365,8.5,2.21,0.422,-999.0,'1111122,1111122,1111122' 
DISL,ioos:station:DISL:MHPA:1,2017-03-03T11:00:00Z,30.6671,-87.9365,8.5,1.9,354.5,-999.0,'1111122,1111122,1111122' 
DISL,ioos:station:DISL:MHPA:1,2017-03-03T11:30:00Z,30.6671,-87.9365,8.5,1.6,358.0,-999.0,'1111122,1111122,1111122' 
DISL,ioos:station:DISL:MHPA:1,2017-03-03T12:00:00Z,30.6671,-87.9365,8.5,0.73,359.7,-999.0,'1111122,1111122,1111122' 
DISL,ioos:station:DISL:MHPA:1,2017-03-03T12:30:00Z,30.6671,-87.9365,8.5,1.32,347.0,-999.0,'1111122,1111122,1111122' 
DISL,ioos:station:DISL:MHPA:1,2017-03-03T13:00:00Z,30.6671,-87.9365,8.5,1.79,344.7,-999.0,'1111122,1111122,1111122' 
DISL,ioos:station:DISL:MHPA:1,2017-03-03T13:30:00Z,30.6671,-87.9365,8.5,2.02,355.4,-999.0,'1111122,1111122,1111122' 
DISL,ioos:station:DISL:MHPA:1,2017-03-03T14:00:00Z,30.6671,-87.9365,8.5,2.32,3.67,-999.0,'1111122,1111122,1111122' 
DISL,ioos:station:DISL:MHPA:1,2017-03-03T14:30:00Z,30.6671,-87.9365,8.5,2.58,4.655,-999.0,'1111122,1111122,1111122' 
DISL,ioos:station:DISL:MHPA:1,2017-03-03T15:00:00Z,30.6671,-87.9365,8.5,3.08,20.24,-999.0,'1111122,1111122,1111122' 
DISL,ioos:station:DISL:MHPA:1,2017-03-03T15:30:00Z,30.6671,-87.9365,8.5,2.61,335.8,-999.0,'1111122,1111122,1111122' 
DISL,ioos:station:DISL:MHPA:1,2017-03-03T16:00:00Z,30.6671,-87.9365,8.5,3.63,24.89,-999.0,'1111122,1111122,1111122' 
DISL,ioos:station:DISL:MHPA:1,2017-03-03T16:30:00Z,30.6671,-87.9365,8.5,4.28,10.95,-999.0,'1111122,1111122,1111122' 
DISL,ioos:station:DISL:MHPA:1,2017-03-03T17:00:00Z,30.6671,-87.9365,8.5,5.28,8.21,-999.0,'1111122,1111122,1111122' 
DISL,ioos:station:DISL:MHPA:1,2017-03-03T17:30:00Z,30.6671,-87.9365,8.5,5.43,3.399,-999.0,'1111122,1111122,1111122' 
DISL,ioos:station:DISL:MHPA:1,2017-03-03T18:00:00Z,30.6671,-87.9365,8.5,3.92,5.537,-999.0,'1111122,1111122,1111122' 
DISL,ioos:station:DISL:MHPA:1,2017-03-03T18:30:00Z,30.6671,-87.9365,8.5,4.83,15.25,-999.0,'1111122,1111122,1111122' 
DISL,ioos:station:DISL:MHPA:1,2017-03-03T19:00:00Z,30.6671,-87.9365,8.5,5.12,353.1,-999.0,'1111122,1111122,1111122' 
DISL,ioos:station:DISL:MHPA:1,2017-03-03T19:30:00Z,30.6671,-87.9365,8.5,4.24,7.128,-999.0,'1111122,1111122,1111122' 
DISL,ioos:station:DISL:MHPA:1,2017-03-03T20:00:00Z,30.6671,-87.9365,8.5,5.01,350.2,-999.0,'1111122,1111122,1111122' 
DISL,ioos:station:DISL:MHPA:1,2017-03-03T20:30:00Z,30.6671,-87.9365,8.5,4.33,10.43,-999.0,'1111122,1111122,1111122' 
DISL,ioos:station:DISL:MHPA:1,2017-03-03T21:00:00Z,30.6671,-87.9365,8.5,5.2,7.19,-999.0,'1111122,1111122,1111122' 
DISL,ioos:station:DISL:MHPA:1,2017-03-03T21:30:00Z,30.6671,-87.9365,8.5,4.4,5.944,-999.0,'1111122,1111122,1111122' 
DISL,ioos:station:DISL:MHPA:1,2017-03-03T22:00:00Z,30.6671,-87.9365,8.5,3.71,357.2,-999.0,'1111122,1111122,1111122' 
DISL,ioos:station:DISL:MHPA:1,2017-03-03T22:30:00Z,30.6671,-87.9365,8.5,4.19,1.127,-999.0,'1111122,1111122,1111122' 
DISL,ioos:station:DISL:MHPA:1,2017-03-03T23:00:00Z,30.6671,-87.9365,8.5,4.73,30.98,-999.0,'1111122,1111122,1111122' 
DISL,ioos:station:DISL:MHPA:1,2017-03-03T23:30:00Z,30.6671,-87.9365,8.5,3.48,21.03,-999.0,'1111122,1111122,1111122' 
DISL,ioos:station:DISL:MHPA:1,2017-03-04T00:00:00Z,30.6671,-87.9365,8.5,2.85,6.731,-999.0,'1111122,1111122,1111122' 
DISL,ioos:station:DISL:MHPA:1,2017-03-04T00:30:00Z,30.6671,-87.9365,8.5,1.94,9.82,-999.0,'1111122,1111122,1111122' 
DISL,ioos:station:DISL:MHPA:1,2017-03-04T01:00:00Z,30.6671,-87.9365,8.5,1.56,12.48,-999.0,'1111122,1111122,1111122' 
DISL,ioos:station:DISL:MHPA:1,2017-03-04T01:30:00Z,30.6671,-87.9365,8.5,1.24,22.68,-999.0,'1111122,1111122,1111122' 
DISL,ioos:station:DISL:MHPA:1,2017-03-04T02:00:00Z,30.6671,-87.9365,8.5,0.94,28.83,-999.0,'1111122,1111122,1111122' 
DISL,ioos:station:DISL:MHPA:1,2017-03-04T02:30:00Z,30.6671,-87.9365,8.5,1.52,26.94,-999.0,'1111122,1111122,1111122' 
DISL,ioos:station:DISL:MHPA:1,2017-03-04T03:00:00Z,30.6671,-87.9365,8.5,2.23,19.76,-999.0,'1111122,1111122,1111122' 
DISL,ioos:station:DISL:MHPA:1,2017-03-04T03:30:00Z,30.6671,-87.9365,8.5,2.22,25.05,-999.0,'1111122,1111122,1111122' 
DISL,ioos:station:DISL:MHPA:1,2017-03-04T04:00:00Z,30.6671,-87.9365,8.5,1.61,19.03,-999.0,'1111122,1111122,1111122' 
DISL,ioos:station:DISL:MHPA:1,2017-03-04T04:30:00Z,30.6671,-87.9365,8.5,1.73,19.85,-999.0,'1111122,1111122,1111122' 
DISL,ioos:station:DISL:MHPA:1,2017-03-04T05:00:00Z,30.6671,-87.9365,8.5,1.58,12.28,-999.0,'1111122,1111122,1111122' 
DISL,ioos:station:DISL:MHPA:1,2017-03-04T05:30:00Z,30.6671,-87.9365,8.5,0.56,36.73,-999.0,'1111122,1111122,1111122' 
DISL,ioos:station:DISL:MHPA:1,2017-03-04T06:00:00Z,30.6671,-87.9365,8.5,1.01,32.25,-999.0,'1111122,1111122,1111122' 
DISL,ioos:station:DISL:MHPA:1,2017-03-04T06:30:00Z,30.6671,-87.9365,8.5,0.99,49.32,-999.0,'1111122,1111122,1111122' 
DISL,ioos:station:DISL:MHPA:1,2017-03-04T07:00:00Z,30.6671,-87.9365,8.5,0.96,6.203,-999.0,'1111122,1111122,1111122' 
DISL,ioos:station:DISL:MHPA:1,2017-03-04T07:30:00Z,30.6671,-87.9365,8.5,1.75,20.12,-999.0,'1111122,1111122,1111122' 
DISL,ioos:station:DISL:MHPA:1,2017-03-04T08:00:00Z,30.6671,-87.9365,8.5,1.91,38.13,-999.0,'1111122,1111122,1111122' 
DISL,ioos:station:DISL:MHPA:1,2017-03-04T08:30:00Z,30.6671,-87.9365,8.5,2.36,21.17,-999.0,'1111122,1111122,1111122' 
DISL,ioos:station:DISL:MHPA:1,2017-03-04T09:00:00Z,30.6671,-87.9365,8.5,2.69,30.51,-999.0,'1111122,1111122,1111122' 
DISL,ioos:station:DISL:MHPA:1,2017-03-04T09:30:00Z,30.6671,-87.9365,8.5,2.67,41.62,-999.0,'1111122,1111122,1111122' 
DISL,ioos:station:DISL:MHPA:1,2017-03-04T10:00:00Z,30.6671,-87.9365,8.5,2.98,53.03,-999.0,'1111122,1111122,1111122' 
DISL,ioos:station:DISL:MHPA:1,2017-03-04T10:30:00Z,30.6671,-87.9365,8.5,3.11,49.53,-999.0,'1111122,1111122,1111122' 
DISL,ioos:station:DISL:MHPA:1,2017-03-04T11:00:00Z,30.6671,-87.9365,8.5,2.9,38.2,-999.0,'1111122,1111122,1111122' 
DISL,ioos:station:DISL:MHPA:1,2017-03-04T11:30:00Z,30.6671,-87.9365,8.5,3.16,44.96,-999.0,'1111122,1111122,1111122' 
DISL,ioos:station:DISL:MHPA:1,2017-03-04T12:00:00Z,30.6671,-87.9365,8.5,3.02,40.55,-999.0,'1111122,1111122,1111122' 
DISL,ioos:station:DISL:MHPA:1,2017-03-04T12:30:00Z,30.6671,-87.9365,8.5,2.76,55.43,-999.0,'1111122,1111122,1111122' 
DISL,ioos:station:DISL:MHPA:1,2017-03-04T13:00:00Z,30.6671,-87.9365,8.5,2.99,71.14,-999.0,'1111122,1111122,1111122' 
DISL,ioos:station:DISL:MHPA:1,2017-03-04T13:30:00Z,30.6671,-87.9365,8.5,3.42,81.2,-999.0,'1111122,1111122,1111122' 
DISL,ioos:station:DISL:MHPA:1,2017-03-04T14:00:00Z,30.6671,-87.9365,8.5,3.36,74.43,-999.0,'1111122,1111122,1111122' 
DISL,ioos:station:DISL:MHPA:1,2017-03-04T14:30:00Z,30.6671,-87.9365,8.5,2.65,62.23,-999.0,'1111122,1111122,1111122' 
DISL,ioos:station:DISL:MHPA:1,2017-03-04T15:00:00Z,30.6671,-87.9365,8.5,2.44,83.6,-999.0,'1111122,1111122,1111122' 
DISL,ioos:station:DISL:MHPA:1,2017-03-04T15:30:00Z,30.6671,-87.9365,8.5,3.22,62.47,-999.0,'1111122,1111122,1111122' 
DISL,ioos:station:DISL:MHPA:1,2017-03-04T16:00:00Z,30.6671,-87.9365,8.5,2.19,71.43,-999.0,'1111122,1111122,1111122' 
DISL,ioos:station:DISL:MHPA:1,2017-03-04T16:30:00Z,30.6671,-87.9365,8.5,2.19,115.4,-999.0,'1111122,1111122,1111122' 
DISL,ioos:station:DISL:MHPA:1,2017-03-04T17:00:00Z,30.6671,-87.9365,8.5,1.73,133.4,-999.0,'1111122,1111122,1111122' 
DISL,ioos:station:DISL:MHPA:1,2017-03-04T17:30:00Z,30.6671,-87.9365,8.5,1.3,160.7,-999.0,'1111122,1111122,1111122' 
DISL,ioos:station:DISL:MHPA:1,2017-03-04T18:00:00Z,30.6671,-87.9365,8.5,2.79,247.9,-999.0,'1111122,1111122,1111122' 
DISL,ioos:station:DISL:MHPA:1,2017-03-04T18:30:00Z,30.6671,-87.9365,8.5,3.33,256.2,-999.0,'1111122,1111122,1111122' 
DISL,ioos:station:DISL:MHPA:1,2017-03-04T19:00:00Z,30.6671,-87.9365,8.5,3.32,231.4,-999.0,'1111122,1111122,1111122' 
DISL,ioos:station:DISL:MHPA:1,2017-03-04T19:30:00Z,30.6671,-87.9365,8.5,3.15,230.8,-999.0,'1111122,1111122,1111122' 
DISL,ioos:station:DISL:MHPA:1,2017-03-04T20:00:00Z,30.6671,-87.9365,8.5,3.85,226.8,-999.0,'1111122,1111122,1111122' 
DISL,ioos:station:DISL:MHPA:1,2017-03-04T20:30:00Z,30.6671,-87.9365,8.5,3.34,246.7,-999.0,'1111122,1111122,1111122' 
DISL,ioos:station:DISL:MHPA:1,2017-03-04T21:00:00Z,30.6671,-87.9365,8.5,3.86,232.0,-999.0,'1111122,1111122,1111122' 
DISL,ioos:station:DISL:MHPA:1,2017-03-04T21:30:00Z,30.6671,-87.9365,8.5,3.78,214.7,-999.0,'1111122,1111122,1111122' 
DISL,ioos:station:DISL:MHPA:1,2017-03-04T22:00:00Z,30.6671,-87.9365,8.5,3.76,205.7,-999.0,'1111122,1111122,1111122' 
DISL,ioos:station:DISL:MHPA:1,2017-03-04T22:30:00Z,30.6671,-87.9365,8.5,3.22,201.5,-999.0,'1111122,1111122,1111122' 
DISL,ioos:station:DISL:MHPA:1,2017-03-04T23:00:00Z,30.6671,-87.9365,8.5,2.92,212.1,-999.0,'1111122,1111122,1111122' 
DISL,ioos:station:DISL:MHPA:1,2017-03-04T23:30:00Z,30.6671,-87.9365,8.5,2.62,208.8,-999.0,'1111122,1111122,1111122' 
DISL,ioos:station:DISL:MHPA:1,2017-03-05T00:00:00Z,30.6671,-87.9365,8.5,2.44,209.8,-999.0,'1111122,1111122,1111122' 
DISL,ioos:station:DISL:MHPA:1,2017-03-05T00:30:00Z,30.6671,-87.9365,8.5,3.47,204.5,-999.0,'1111122,1111122,1111122' 
DISL,ioos:station:DISL:MHPA:1,2017-03-05T01:00:00Z,30.6671,-87.9365,8.5,3.02,202.7,-999.0,'1111122,1111122,1111122' 
DISL,ioos:station:DISL:MHPA:1,2017-03-05T01:30:00Z,30.6671,-87.9365,8.5,1.48,155.0,-999.0,'1111122,1111122,1111122' 
DISL,ioos:station:DISL:MHPA:1,2017-03-05T02:00:00Z,30.6671,-87.9365,8.5,1.4,120.4,-999.0,'1111122,1111122,1111122' 
DISL,ioos:station:DISL:MHPA:1,2017-03-05T02:30:00Z,30.6671,-87.9365,8.5,0.79,97.4,-999.0,'1111122,1111122,1111122' 
DISL,ioos:station:DISL:MHPA:1,2017-03-05T03:00:00Z,30.6671,-87.9365,8.5,1.32,99.7,-999.0,'1111122,1111122,1111122' 
DISL,ioos:station:DISL:MHPA:1,2017-03-05T03:30:00Z,30.6671,-87.9365,8.5,1.17,52.61,-999.0,'1111122,1111122,1111122' 
DISL,ioos:station:DISL:MHPA:1,2017-03-05T04:00:00Z,30.6671,-87.9365,8.5,0.29,16.56,-999.0,'1111122,1111122,1111122' 
DISL,ioos:station:DISL:MHPA:1,2017-03-05T04:30:00Z,30.6671,-87.9365,8.5,0.69,77.57,-999.0,'1111122,1111122,1111122' 
DISL,ioos:station:DISL:MHPA:1,2017-03-05T05:00:00Z,30.6671,-87.9365,8.5,0.11,44.27,-999.0,'1111122,1111122,1111122' 
DISL,ioos:station:DISL:MHPA:1,2017-03-05T05:30:00Z,30.6671,-87.9365,8.5,1.04,21.21,-999.0,'1111122,1111122,1111122' 
DISL,ioos:station:DISL:MHPA:1,2017-03-05T06:00:00Z,30.6671,-87.9365,8.5,1.34,31.84,-999.0,'1111122,1111122,1111122' 
DISL,ioos:station:DISL:MHPA:1,2017-03-05T06:30:00Z,30.6671,-87.9365,8.5,1.64,14.75,-999.0,'1111122,1111122,1111122' 
DISL,ioos:station:DISL:MHPA:1,2017-03-05T07:00:00Z,30.6671,-87.9365,8.5,1.45,15.63,-999.0,'1111122,1111122,1111122' 
DISL,ioos:station:DISL:MHPA:1,2017-03-05T07:30:00Z,30.6671,-87.9365,8.5,1.69,10.82,-999.0,'1111122,1111122,1111122' 
DISL,ioos:station:DISL:MHPA:1,2017-03-05T08:00:00Z,30.6671,-87.9365,8.5,1.24,66.11,-999.0,'1111122,1111122,1111122' 
DISL,ioos:station:DISL:MHPA:1,2017-03-05T08:30:00Z,30.6671,-87.9365,8.5,2.11,97.3,-999.0,'1111122,1111122,1111122' 
DISL,ioos:station:DISL:MHPA:1,2017-03-05T09:00:00Z,30.6671,-87.9365,8.5,2.56,110.6,-999.0,'1111122,1111122,1111122' 